Location: Crescent
(42.8242°N, 73.7329°W)
Time: 09:18:05
(UTC+00:00)

Tiros 1 despin weight - All Passes

Search period start: 19 February 2026 00:00
Search period end: 01 March 2026 00:00
Orbit: 557 x 594 km, 48.2° (Epoch: 19 February)

Date Brightness Start Highest point End Pass type
(mag) Time Alt. Az. Time Alt. Az. Time Alt. Az.
19 Feb - 01:18:14 10° WNW 01:22:20 53° SSW 01:26:28 10° SE visible
19 Feb - 03:01:39 10° SW 03:02:12 10° SW 03:02:44 10° SW night (unlit)
19 Feb - 18:37:59 10° SSW 18:41:48 34° SE 18:45:36 10° ENE daylight
19 Feb - 20:18:02 10° WSW 20:22:13 64° NNW 20:26:24 10° ENE daylight
19 Feb - 21:59:17 10° WNW 22:03:14 39° N 22:07:12 10° ENE daylight
19 Feb - 23:40:07 10° WNW 23:44:17 61° NNE 23:48:27 10° E visible
20 Feb - 01:20:52 10° WNW 01:24:43 36° SW 01:28:37 10° SSE visible
20 Feb - 18:40:05 10° SW 18:44:11 50° SSE 18:48:15 10° ENE daylight
20 Feb - 20:20:41 10° W 20:24:47 51° NNW 20:28:54 10° ENE daylight
20 Feb - 22:01:55 10° WNW 22:05:53 40° N 22:09:52 10° ENE daylight
20 Feb - 23:42:36 10° WNW 23:46:49 80° NNE 23:51:02 10° ESE visible
21 Feb - 01:23:40 10° W 01:27:04 24° SW 01:30:28 10° SSE visible
21 Feb - 17:04:04 10° S 17:06:35 15° SE 17:09:04 10° E daylight
21 Feb - 18:42:23 10° SW 18:46:36 73° SSE 18:50:48 10° ENE daylight
21 Feb - 20:23:21 10° W 20:27:23 44° N 20:31:25 10° ENE daylight
21 Feb - 22:04:28 10° WNW 22:08:31 43° N 22:12:32 10° E daylight
21 Feb - 23:45:06 10° WNW 23:49:18 75° SSW 23:53:30 10° SE visible
22 Feb - 01:26:47 10° W 01:29:20 16° SW 01:31:54 10° S visible
22 Feb - 17:05:26 10° SSW 17:08:50 23° SE 17:12:13 10° E daylight
22 Feb - 18:44:50 10° WSW 18:49:05 82° NNW 18:53:18 10° ENE daylight
22 Feb - 20:26:01 10° WNW 20:30:00 40° N 20:33:59 10° ENE daylight
22 Feb - 22:07:00 10° WNW 22:11:06 50° NNE 22:15:12 10° E daylight
22 Feb - 23:47:38 10° WNW 23:51:44 51° SSW 23:55:48 10° SE visible
23 Feb - 17:07:17 10° SSW 17:11:09 35° SE 17:15:01 10° ENE daylight
23 Feb - 18:47:23 10° WSW 18:51:35 63° NNW 18:55:47 10° ENE daylight
23 Feb - 20:28:39 10° WNW 20:32:38 39° N 20:36:35 10° ENE daylight
23 Feb - 22:09:29 10° WNW 22:13:39 63° NNE 22:17:49 10° ESE daylight
23 Feb - 23:50:16 10° WNW 23:54:06 34° SW 23:57:54 10° SSE visible
24 Feb - 17:09:23 10° SW 17:13:31 52° SSE 17:17:37 10° ENE daylight
24 Feb - 18:50:01 10° W 18:54:09 50° NNW 18:58:15 10° ENE daylight
24 Feb - 20:31:15 10° WNW 20:35:15 40° N 20:39:13 10° ENE daylight
24 Feb - 22:11:57 10° WNW 22:16:10 82° NNE 22:20:22 10° ESE daylight
24 Feb - 23:53:03 10° W 23:56:23 23° SW 23:59:44 10° SSE visible
25 Feb - 15:33:13 10° S 15:35:52 16° SE 15:38:30 10° E daylight
25 Feb - 17:11:40 10° SW 17:15:56 75° SSE 17:20:09 10° ENE daylight
25 Feb - 18:52:39 10° W 18:56:43 43° N 19:00:45 10° ENE daylight
25 Feb - 20:33:47 10° WNW 20:37:50 44° N 20:41:52 10° E daylight
25 Feb - 22:14:25 10° WNW 22:18:37 73° SSW 22:22:48 10° SE daylight
25 Feb - 23:56:11 10° W 23:58:38 15° SW 00:01:04 10° S visible
26 Feb - 15:34:38 10° SSW 15:38:07 24° SE 15:41:34 10° E daylight
26 Feb - 17:14:06 10° WSW 17:18:22 80° NNW 17:22:36 10° ENE daylight
26 Feb - 18:55:18 10° WNW 18:59:19 40° N 19:03:18 10° ENE daylight
26 Feb - 20:36:17 10° WNW 20:40:24 51° NNE 20:44:31 10° E daylight
26 Feb - 22:16:56 10° WNW 22:21:01 50° SSW 22:25:03 10° SE daylight
27 Feb - 15:36:28 10° SSW 15:40:24 36° SE 15:44:19 10° ENE daylight
27 Feb - 17:16:38 10° W 17:20:52 61° NNW 17:25:03 10° ENE daylight
27 Feb - 18:57:55 10° WNW 19:01:54 39° N 19:05:52 10° ENE daylight
27 Feb - 20:38:44 10° WNW 20:42:56 64° NNE 20:47:06 10° ESE daylight
27 Feb - 22:19:33 10° WNW 22:23:21 33° SW 22:27:07 10° SSE daylight
28 Feb - 14:02:01 10° SE 14:02:52 10° SE 14:03:44 10° ESE daylight
28 Feb - 15:38:34 10° SW 15:42:45 54° SSE 15:46:54 10° ENE daylight
28 Feb - 17:19:14 10° W 17:23:23 50° NNW 17:27:31 10° ENE daylight
28 Feb - 19:00:29 10° WNW 19:04:29 40° N 19:08:29 10° ENE daylight
28 Feb - 20:41:11 10° WNW 20:45:25 84° NNE 20:49:36 10° ESE daylight
28 Feb - 22:22:20 10° W 22:25:36 22° SW 22:28:53 10° S daylight
